Retour au catalogue

JAY-D1

ActifMilitaireSSO
NORAD 62669·PAYLOAD·🇨🇦 Canada

Lancé Jan 14, 2025 depuis Vandenberg Space Force Base

Loading…

Prochains Passages (prochaines 24 heures)

TLE

FraisSource: Space-Track

Époque: Sep 14, 2026, 13:27 UTC

1 62669U 25009BN  26257.56075165  .00002859  00000-0  12507-3 0  9994
2 62669  97.3972 335.5819 0006054  42.5106 317.6598 15.22859391149979

Suivez JAY-D1 en temps réel avec AllMySat

Download on the App Store